TimeHST,TemperatureF,Dew PointF,Humidity,Sea Level PressureIn,VisibilityMPH,Wind Direction,Wind SpeedMPH,Gust SpeedMPH,PrecipitationIn,Events,Conditions,WindDirDegrees,DateUTC
12:18 AM,71.6,66.2,83,30.11,8.0,NW,6.9,-,0.00,Rain,Light Rain,320,2011-11-26 10:18:00
12:41 AM,71.6,66.2,83,30.11,9.0,NW,11.5,-,0.00,Rain,Light Rain,320,2011-11-26 10:41:00
12:53 AM,71.1,66.0,84,30.10,10.0,WNW,6.9,-,0.00,,Mostly Cloudy,300,2011-11-26 10:53:00
1:53 AM,70.0,64.9,84,30.09,10.0,Calm,Calm,-,N/A,,Mostly Cloudy,0,2011-11-26 11:53:00
2:53 AM,71.1,64.0,78,30.07,10.0,NW,6.9,-,N/A,,Mostly Cloudy,310,2011-11-26 12:53:00
3:53 AM,71.1,64.0,78,30.06,9.0,NNW,5.8,-,0.00,Rain,Light Rain,340,2011-11-26 13:53:00
4:07 AM,71.6,64.4,78,30.07,10.0,NNW,6.9,-,0.00,,Overcast,330,2011-11-26 14:07:00
4:38 AM,69.8,64.4,83,30.07,10.0,NW,9.2,-,0.00,,Mostly Cloudy,310,2011-11-26 14:38:00
4:53 AM,70.0,64.9,84,30.08,10.0,WNW,6.9,-,0.00,,Overcast,290,2011-11-26 14:53:00
5:43 AM,69.8,64.4,83,30.09,10.0,Variable,3.5,-,0.02,Rain,Light Rain,0,2011-11-26 15:43:00
5:50 AM,69.8,64.4,83,30.09,10.0,NW,4.6,-,0.02,,Overcast,310,2011-11-26 15:50:00
5:53 AM,70.0,64.0,81,30.09,10.0,NW,5.8,-,0.02,,Overcast,310,2011-11-26 15:53:00
6:53 AM,72.0,63.0,73,30.10,10.0,NNW,13.8,-,0.00,Rain,Light Rain,340,2011-11-26 16:53:00
7:53 AM,71.1,63.0,75,30.12,10.0,NW,5.8,-,0.00,Rain,Light Rain,320,2011-11-26 17:53:00
8:25 AM,71.6,66.2,83,30.14,8.0,NNW,8.1,-,0.00,Rain,Light Rain,340,2011-11-26 18:25:00
8:48 AM,71.6,66.2,83,30.14,8.0,NNW,9.2,-,0.02,,Overcast,330,2011-11-26 18:48:00
8:53 AM,71.1,66.9,87,30.14,9.0,NW,8.1,-,0.02,,Overcast,320,2011-11-26 18:53:00
9:53 AM,73.0,66.9,81,30.14,10.0,NW,8.1,-,N/A,,Overcast,320,2011-11-26 19:53:00
10:53 AM,75.9,66.9,74,30.13,10.0,North,10.4,-,N/A,,Mostly Cloudy,350,2011-11-26 20:53:00
11:09 AM,77.0,64.4,65,30.13,10.0,NNE,10.4,-,N/A,,Scattered Clouds,20,2011-11-26 21:09:00
11:53 AM,78.1,66.0,66,30.12,10.0,North,11.5,-,N/A,,Mostly Cloudy,360,2011-11-26 21:53:00
12:53 PM,79.0,64.9,62,30.09,10.0,North,11.5,-,N/A,,Mostly Cloudy,10,2011-11-26 22:53:00
1:53 PM,78.1,64.0,62,30.08,10.0,North,12.7,-,N/A,,Mostly Cloudy,360,2011-11-26 23:53:00
2:53 PM,78.1,63.0,60,30.08,10.0,North,10.4,-,N/A,,Mostly Cloudy,360,2011-11-27 00:53:00
3:53 PM,77.0,63.0,62,30.09,10.0,North,9.2,-,N/A,,Mostly Cloudy,10,2011-11-27 01:53:00
5:53 PM,73.0,63.0,71,30.12,10.0,NW,5.8,-,N/A,,Scattered Clouds,310,2011-11-27 03:53:00
6:53 PM,73.0,63.0,71,30.14,10.0,NNW,8.1,-,N/A,,Scattered Clouds,340,2011-11-27 04:53:00
7:53 PM,73.9,64.0,71,30.17,10.0,NNW,9.2,-,0.00,,Overcast,340,2011-11-27 05:53:00
8:32 PM,71.6,66.2,83,30.19,10.0,NNW,13.8,-,0.03,Rain,Light Rain,330,2011-11-27 06:32:00
9:53 PM,71.1,66.9,87,30.20,10.0,North,10.4,-,0.03,,Overcast,350,2011-11-27 07:53:00
10:03 PM,71.6,66.2,83,30.21,10.0,NNE,6.9,-,N/A,,Overcast,20,2011-11-27 08:03:00
10:12 PM,69.8,66.2,88,30.21,4.0,Variable,4.6,-,0.00,Rain,Light Rain,0,2011-11-27 08:12:00
10:25 PM,69.8,66.2,88,30.21,2.5,Calm,Calm,-,0.03,Rain,Heavy Rain,0,2011-11-27 08:25:00
10:53 PM,70.0,66.9,90,30.19,9.0,NW,8.1,-,0.10,Rain,Light Rain,320,2011-11-27 08:53:00
11:08 PM,69.8,66.2,88,30.20,10.0,NNW,9.2,-,0.01,Rain,Light Rain,330,2011-11-27 09:08:00
11:15 PM,69.8,66.2,88,30.20,10.0,North,8.1,-,0.01,,Overcast,350,2011-11-27 09:15:00
11:53 PM,71.1,66.0,84,30.18,6.0,NNE,11.5,23.0,0.01,Rain,Rain,30,2011-11-27 09:53:00